sat.trackr.live / text

‹ back to catalog

2024-203B

NORAD 61870 · 2024-203B

PAYLOAD ACTIVE UNKNOWN

§ Identity

Operator
Country
PRC
Launch date
2024-11-09
Launch site
JSC
Launch vehicle
Mass (kg)
RCS (m²)

External: N2YO · Heavens-Above · Gunter

§ Orbital elements

Epoch: 2026-09-22T23:04:57.311616Z

Period
93.96 min
Inclination
97.4091°
Eccentricity
0.0009543
Mean motion
15.32571295 rev/d
Perigee alt
461.6 km
Apogee alt
474.7 km
Semi-major
6,846.3 km
B*
3.2487e-4
RAAN
336.2892°
Arg perigee
345.3624°
Mean anomaly
14.7340°
Rev number
10,393

§ Raw data

2024-203B1 61870U 24203B   26265.96177444  .00010155  00000+0  32487-3 0  99942 61870  97.4091 336.2892 0009543 345.3624  14.7340 15.32571295103930

JSON: /api/v1/satellites/61870 · /tle

For live sub-satellite position, see the globe view (requires WebGL).

§ Visibility from observer

Set your observer location to see the next 7 days of passes ≥ 10°. The values pass through the URL so the page stays shareable.

No JS? Fill the form by hand. The geolocation button needs JavaScript.